OOV-CUBE

Satellite information

Favourite Embed

Satellite Type and Status

PAYLOADIN ORBIT

Key statistics

Satellite OOV-CUBE at a glance.

Uptime

479

Days in orbit

Revolutions

≈ 15.0

Per day

Orbit

LEO

Low Earth Orbit

Inclination

62.0

Latest

Satellite identification and parameters

Extended collection of information and parameters for OOV-CUBE.

Object identification

Identified? True

Debris? False

Object name: OOV-CUBE

International designator: 2024-128F

Object number (NORAD): 60240

Object ID (CCSDS): 60240

Country: GERMANY (GER)

Current information (Y/N): Y

RCS size: SMALL

Orbital parameters

Period: 95.923 minutes

Inclination: 61.9958 deg

SMA: 6941.305 km

Apoapsis: 603.983 km

Periapsis: 522.356 km

RAAN: 305.3289 deg

Eccentricy: 0.0058798

Argument of periapsis: 84.9362 deg

Mean anomaly: 275.8436 deg

Mean motion: 15.01208706 rev/day

Mean motion (dot): 0.00003831 rev/day2

B* drag term: 0.00030234529 1/REarth

Two-line elements (TLE)

Creation date: Oct. 31, 2025, 3 a.m.

Reference frame: TEME

Reference center: EARTH

Epoch: Oct. 30, 2025, 2:10 p.m. UTC

TLE line 0: 0 OOV-CUBE

TLE line 1: 1 60240U 24128F 25303.59044676 .00003831 00000-0 30235-3 0 9994

TLE line 2: 2 60240 61.9958 305.3289 0058798 84.9362 275.8436 15.01208706 71622

Live tracking on map

Real-time ground track for satellite OOV-CUBE.

In-orbit conjunctions

There are no conjunctions computed for OOV-CUBE, at the moment. Check back to stay up to date, as we update our databases every day.

Go to all conjunctions

Associated space launch

Maiden Flight of the Ariane 62 launch vehicle, carrying ten cubesats, two deployers, five experiments, and two reentry capsules.

OOV-CUBE was lifted into orbit during the mission ‘Ariane 62 | Maiden Flight’, on board a Ariane 62 space rocket.

The launch took place on July 9, 2024, 7 p.m. from Ariane Launch Area 4.

For more information about the launch, click the button.

Launch to space Ariane 62 | Maiden Flight
Ariane 62 | Maiden Flight

Agency: European Space Agency

Status: Launch Successful

Launch date: July 9, 2024, 7 p.m. UTC

Rocket: Ariane 62

Launch pad: Ariane Launch Area 4

Location: Guiana Space Centre, French Guiana

...

Latest news about this satellite

News about space launch
ESA 2024 Highlights: flight of the Ariane 6

In 2024, ESA continued to drive Europe’s innovation and excellence in space, equipping the continent with advanced tools and knowledge to address global and local challenges. The year saw pioneering missions, cutting-edge satellites and the pivotal restor...

News about space launch
Europe lifts off from its launcher crisis

For the European space industry, the deafening rumble of the ascending rocket was a sigh of relief. On the afternoon of July 9, an Ariane 6 lifted off on a […]

News about space launch
Ariane 6 joint update report, 16 September 2024

The Ariane 6 Launcher Task Force consists of top management of ESA, as the overall Ariane 6 procuring entity and launch system architect, of the French space agency CNES as the launch base prime contractor, of ArianeGroup as the launcher system prime cont...


Newsletter sign-up

Weekly statistics, charts and insights to help you stay on top of the space industry.